Regional Weather Roundup
Issued by NWS

Home | Current Version | Previous Version | Graphics & Text | Print | Product List | Glossary On
Versions: 1 2 3 4 5 6 7 8 9 10 11 12 13 14 15 16 17 18 19 20 21 22 23 24 25 26 27 28 29 30 31 32 33 34 35 36 37 38 39 40 41 42 43 44 45 46 47 48 49 50
300
ASUS44 KJAN 222110
RWRMS

MISSISSIPPI HOURLY WEATHER ROUNDUP
NATIONAL WEATHER SERVICE JACKSON MS
300 PM CST SAT NOV 22 2014

NOTE: "FAIR: INDICATES FEW OR NO CLOUDS BELOW 12,000 FEET WITH NO
SIGNIFICANT WEATHER AND/OR OBSTRUCTIONS TO VISIBILITY.

MSZ001>002-007>008-010>013-018>021-025>028-034>036-222200-
NORTHWEST MISSISSIPPI

CITY           SKY/WX    TMP DP  RH WIND       PRES   REMARKS
CLARKSDALE     FAIR      68  50  52 SE9       30.07F
CLEVELAND      FAIR      66  54  63 S10       30.05F
GREENWOOD      MOSUNNY   69  47  45 S13       30.07F
GREENVILLE     PTSUNNY   69  51  52 SE10      30.04F
GRENADA        FAIR      66  45  45 SE8       30.08F
OXFORD         FAIR      64  37  36 S8        30.11F
TUNICA         CLEAR     64  46  52 SE12      30.08F
$$

MSZ003>006-009-014>017-022>024-029>033-037>039-222200-
NORTHEAST MISSISSIPPI

CITY           SKY/WX    TMP DP  RH WIND       PRES   REMARKS
COLUMBUS AFB   SUNNY     66  46  47 S10       30.13F
CORINTH        MOCLDY    68  34  28 S15       30.11F
GOLDN TRIANGLE SUNNY     64  46  52 SE14      30.13F
STARKVILLE     FAIR      64  45  48 SE9       30.12F
TUPELO         LGT RAIN  67  43  41 S15       30.12F
$$

MSZ040-058-222200-
CENTRAL MISSISSIPPI

CITY           SKY/WX    TMP DP  RH WIND       PRES   REMARKS
JACKSON INTL   PTSUNNY   70  49  47 SE12      30.07F
JACKSON HAWKNS PTSUNNY   70  49  47 SE12      30.07F
MERIDIAN KEY   CLOUDY    68  51  54 E5        30.11F
MERIDIAN NAS   CLOUDY    68  51  54 SE9       30.13F
RAYMOND        FAIR      72  66  83 SE10G16   30.06F
VICKSBURG      CLOUDY    70  54  56 S9        30.05F
$$

MSZ059>079-222200-
SOUTH MISSISSIPPI

CITY           SKY/WX    TMP DP  RH WIND       PRES   REMARKS
BROOKHAVEN     FAIR      70  54  56 SE9       30.10S
HATTIESBURG    CLOUDY    69  54  58 SE6       30.11R
MCCOMB         PTSUNNY   68  54  60 SE7       30.08F
NATCHEZ        PTSUNNY   70  55  60 SE13      30.05F
PINE BELT      CLOUDY    66  52  59 CALM      30.11S
$$

MSZ080>082-222200-
COASTAL MISSISSIPPI

CITY           SKY/WX    TMP DP  RH WIND       PRES   REMARKS
BAY ST LOUIS   MOSUNNY   64  54  68 E8G17     30.09R
BILOXI         CLOUDY    65  58  77 E10       30.08S
PASCAGOULA     CLOUDY    65  57  75 E10       30.09F
GULFPORT       CLOUDY    65  57  75 E12       30.09R
$$



USA.gov is the U.S. government's official web portal to all federal, state and local government web resources and services.